Vero Beach, FL

3:29 AM EDT on May 25, 2018 (GMT -0400)
Vero Beach Municipal

Weather History for KVRB - June, 2014

Change the Weather History Date:

Tuesday, June 10, 2014

  Actual Average Record
Temperature  
Mean Temperature 82 °F 80 °F  
Max Temperature 91 °F 88 °F 95 °F (2007)
Min Temperature 73 °F 72 °F 63 °F (1970)
Degree Days  
Heating Degree Days 0 0  
Month to date heating degree days 0 0  
Since 1 June heating degree days 0 0  
Since 1 July heating degree days 268 456  
Cooling Degree Days 17 15  
Month to date cooling degree days 139 145  
Year to date cooling degree days 1065 951  
Since 1 June cooling degree days 139 145  
Growing Degree Days 32 (Base 50)    
Moisture  
Dew Point 72 °F    
Average Humidity 75    
Maximum Humidity 94    
Minimum Humidity 55    
Precipitation  
Precipitation 0.00 in 0.22 in 3.12 in (2015)
Month to date precipitation 0.75 2.07  
Year to date precipitation 13.93 17.44  
Sea Level Pressure  
Sea Level Pressure 30.01 in    
Wind  
Wind Speed 6 mph (SSW)    
Max Wind Speed 21 mph    
Max Gust Speed 26 mph    
Visibility 8 miles    
Events Thunderstorm    
T = Trace of Precipitation, MM = Missing Value Source: NWS Daily Summary

Daily Weather History Graph

Daily Weather History Graph

Search for Another Location

Airport or City:

Astronomy

Jun. 10, 2014 Rise Set
Actual Time 6:25 AM EDT 8:16 PM EDT
Civil Twilight 5:58 AM EDT 8:43 PM EDT
Nautical Twilight 5:26 AM EDT 9:15 PM EDT
Astronomical Twilight 4:53 AM EDT 9:49 PM EDT
Moon 5:51 PM EDT (6/10) 4:16 AM EDT (6/10)
Length of Visible Light 14h 44m
Length of Day
13h 51m
Waxing Gibbous, 92% of the Moon is Illuminated
Jun 10
Waxing Gibbous
Jun 13
Full
Jun 19
Last Quarter
Jun 27
New
Jul 5
First Quarter

Hourly Weather History & Observations

Time (EDT) Temp. Heat Index Dew Point Humidity Pressure Visibility Wind Dir Wind Speed Gust Speed Precip Events Conditions
12:53 AM 77.0 °F - 71.1 °F 82% 29.99 in 4.0 mi SSW 4.6 mph - N/A   Haze
1:53 AM 75.0 °F - 72.0 °F 90% 30.00 in 4.0 mi West 3.5 mph - N/A   Clear
2:53 AM 73.9 °F - 72.0 °F 93% 29.99 in 3.0 mi South 4.6 mph - N/A   Clear
3:53 AM 73.9 °F - 72.0 °F 93% 29.99 in 4.0 mi South 3.5 mph - N/A   Clear
4:53 AM 73.9 °F - 72.0 °F 93% 29.99 in 5.0 mi South 4.6 mph - N/A   Clear
5:53 AM 73.0 °F - 72.0 °F 96% 30.00 in 7.0 mi SSW 4.6 mph - N/A   Clear
6:53 AM 73.9 °F - 72.0 °F 93% 30.01 in 5.0 mi Calm Calm - N/A   Clear
7:53 AM 77.0 °F - 75.0 °F 94% 30.02 in 7.0 mi SW 3.5 mph - N/A   Clear
8:53 AM 80.1 °F 85.4 °F 75.9 °F 87% 30.03 in 10.0 mi WSW 5.8 mph - N/A   Clear
9:53 AM 84.9 °F 91.4 °F 73.0 °F 67% 30.02 in 10.0 mi SW 4.6 mph - N/A   Clear
11:53 AM 88.0 °F 92.1 °F 69.1 °F 53% 30.02 in 10.0 mi South 9.2 mph - N/A   Partly Cloudy
1:53 PM 91.0 °F 100.4 °F 73.9 °F 57% 30.00 in 10.0 mi East 11.5 mph - N/A   Scattered Clouds
2:49 PM 87.8 °F 95.6 °F 73.4 °F 62% 29.99 in 10.0 mi ESE 15.0 mph - N/A Thunderstorm Scattered Clouds
3:53 PM 84.9 °F 91.4 °F 73.0 °F 67% 29.99 in 10.0 mi South 12.7 mph - N/A   Scattered Clouds
5:53 PM 81.0 °F 83.0 °F 66.0 °F 60% 29.99 in 10.0 mi SSW 8.1 mph - N/A   Clear
6:53 PM 80.1 °F 83.2 °F 70.0 °F 71% 30.02 in 10.0 mi SSW 8.1 mph - N/A   Clear
7:53 PM 78.1 °F - 72.0 °F 81% 30.04 in 10.0 mi WSW 6.9 mph - N/A   Clear
8:53 PM 77.0 °F - 72.0 °F 84% 30.03 in 10.0 mi South 3.5 mph - N/A   Clear
9:53 PM 75.9 °F - 72.0 °F 87% 30.04 in 10.0 mi Calm Calm - N/A   Clear
11:53 PM 77.0 °F - 73.0 °F 88% 30.03 in 10.0 mi SW 3.5 mph - N/A   Clear